World > North America > United States > Mississippi > Louisville   City of Louisville, MS

Louisville, MS Hourly Weather Updates

Feedback E-mail the Weather

Quick Clicks

Louisville, MS Weather Maps

°F °C°F °C
Louisville Weather Map
UTC Time: 4/17/2024, 00:42
Your Time:

Louisville, MS Regional Weather

Expires:202404170100;;868533
ASUS44 KJAN 170010
RWRMS 

MISSISSIPPI HOURLY WEATHER ROUNDUP
NATIONAL WEATHER SERVICE JACKSON MS
700 PM CDT TUE APR 16 2024

NOTE: "FAIR: INDICATES FEW OR NO CLOUDS BELOW 12,000 FEET WITH NO
SIGNIFICANT WEATHER AND/OR OBSTRUCTIONS TO VISIBILITY.


MSZ003>006-009-014>017-022>024-029>033-037>039-170100-
NORTHEAST MISSISSIPPI
  
CITY           SKY/WX    TMP DP  RH WIND       PRES   REMARKS
ABERDEEN       CLOUDY    77  64  65 S12       29.97R                  
COLUMBUS AFB   MOCLDY    79  63  56 S12       29.91F                  
6HR MIN TEMP:  79; 6HR MAX TEMP:  85;                                

CORINTH        CLOUDY    77  64  65 SE12      29.91R                  
GOLDN TRIANGLE MOCLDY    79  62  56 S13       29.96F                  
IUKA             N/A     77  59  53 S10       29.96R                  
LOUISVILLE     MOCLDY    77  61  57 S8        29.98R                  
STARKVILLE     MOCLDY    77  64  65 S13       29.93R                  
TUPELO         CLOUDY    79  61  53 S9        29.94R                  
6HR MIN TEMP:  78; 6HR MAX TEMP:  85;                                

$$


SKY/WX - Weather  TMP - Temperature  DP - Dew Point  RH - Humidity
WIND - Wind Direction/Speed PRES - Barometric Pressure VSB - Visibility
WCI - Wind Chill Index E13G22 Wind - East Wind 13 mph/Gusts of 22 mph

Trending Headlines

Trending Entertainment Headlines

Louisville Radar Loop

Use the map search tool if you want to place a location marker on the radar map...

Louisville Quick Facts

National Two Day Weather Forecast


E-mail the Louisville Weather Forecast

Voice your opinion or tell us about page issues...